Location: Hains Lake
(37.8540°N, 99.8578°W)
Time: 23:10:53
(UTC+00:00)

ISS - Pass Details

Date: 10 March 2021
Orbit: 418 x 422 km, 51.6° (Epoch: 12 April)

Event Time Altitude Azimuth Distance (km) Brightness Sun altitude
Exits shadow 10:57:55 19° 13° (NNE) 1,079 -1.4 -24.3°
Maximum altitude 10:58:26 19° 26° (NNE) 1,056 -1.3 -24.2°
Drops below altitude 10° 11:00:57 10° 75° (ENE) 1,495 0.1 -23.7°
Sets 11:03:27 0° 93° (E) 2,356 1.3 -23.2°
